QPF
0.00 0.05 0.02 0.00 0.00 0.00 0.00 0.00 0.00 0.00 0.00 0.00 0.00 0.00 0.00 0.00 0.00 0.00 0.00 0.00 0.00 0.00 0.00 0.00 0.00 0.00 0.00 0.00 0.00 0.00 0.00 0.00 0.00 0.00 0.00 0.00 0.00 0.00 0.00 0.00 0.00 0.00 0.00 0.00
0.02 0.01 0.00 0.00 0.00 0.00 0.00 0.00 0.00 0.00 0.00 0.00 0.00 0.00 0.00 0.00 0.00 0.00 0.00 0.00 0.00 0.00 0.00 0.00 0.00 0.00 0.00 0.00 0.00 0.00 0.00 0.00 0.00 0.00 0.00 0.00 0.00 0.00 0.00 0.00 0.00 0.00 0.00 0.00
0.00 0.00 0.00 0.00 0.00 0.00 0.00 0.00 0.00 0.00 0.00 0.00 0.00 0.00 0.00 0.00 0.00 0.00 0.00 0.00 0.00 0.00 0.00 0.00 0.00 0.00 0.00 0.00 0.00 0.00 0.00 0.00 0.00 0.00 0.00 0.00 0.00 0.00 0.00 0.00 0.00 0.00 0.00 0.00
0.00 0.00 0.00 0.00 0.00 0.00 0.00 0.00 0.00 0.00 0.00 0.00 0.00 0.00 0.00 0.00 0.00 0.00 0.00 0.00 0.00 0.00 0.00 0.00 0.00 0.00 0.00 0.00 0.00 0.00 0.00 0.00 0.00 0.00 0.00 0.00 0.00 0.00 0.00 0.00 0.00 0.00 0.00 0.00
0.00 0.00 0.00 0.00 0.00 0.00 0.00 0.00 0.00 0.00 0.00 0.01 0.01 0.01 0.00 0.00 0.00 0.00 0.00 0.00 0.00 0.00 0.00 0.00 0.00 0.00 0.00 0.00 0.00 0.00 0.00 0.00 0.00 0.00 0.00 0.00 0.00 0.00 0.00 0.00 0.00 0.00 0.00 0.00
0.00 0.00 0.01 0.01 0.00 0.00 0.00 0.00 0.00 0.00 0.01 0.02 0.00 0.00 0.00 0.00 0.00 0.00 0.00 0.00 0.00 0.00 0.00 0.00 0.00 0.00 0.00 0.00 0.00 0.00 0.00 0.00 0.00 0.00 0.00 0.00 0.00 0.00 0.00 0.00 0.00 0.00 0.00 0.00
0.00 0.00 0.00 0.00 0.00 0.00 0.00 0.01 0.02 0.02 0.02 0.01 0.00 0.00 0.00 0.00 0.00 0.00 0.00 0.00 0.00 0.00 0.00 0.00 0.00 0.00 0.00 0.00 0.00 0.00 0.00 0.00 0.00 0.00 0.00 0.00 0.00 0.00 0.00 0.00 0.00 0.00 0.00 0.00
0.00 0.00 0.00 0.00 0.00 0.00 0.00 0.00 0.01 0.00 0.00 0.00 0.00 0.01 0.00 0.00 0.00 0.00 0.00 0.00 0.00 0.00 0.00 0.00 0.00 0.00 0.00 0.00 0.00 0.00 0.00 0.00 0.00 0.00 0.00 0.00 0.00 0.00 0.00 0.00 0.00 0.00 0.00 0.00
0.00 0.00 0.00 0.00 0.00 0.00 0.00 0.01 0.00 0.00 0.00 0.00 0.00 0.00 0.00 0.00 0.00 0.00 0.00 0.00 0.00 0.00 0.00 0.00 0.00 0.00 0.00 0.00 0.00 0.00 0.00 0.00 0.00 0.00 0.00 0.00 0.00 0.00 0.00 0.00 0.00 0.00 0.00 0.00
0.00 0.00 0.00 0.00 0.00 0.00 0.00 0.00 0.01 0.01 0.00 0.00 0.00 0.00 0.00 0.00 0.00 0.00 0.00 0.00 0.00 0.00 0.00 0.00 0.00 0.00 0.00 0.00 0.00 0.00 0.00 0.00 0.00 0.00 0.00 0.00 0.00 0.00 0.00 0.00 0.00 0.00 0.00 0.00
0.00 0.00 0.00 0.00 0.00 0.00 0.00 0.00 0.00 0.00 0.00 0.00 0.00 0.00 0.00 0.00 0.00 0.00 0.00 0.00 0.00 0.00 0.00 0.00 0.00 0.00 0.00 0.00 0.00 0.00 0.00 0.00 0.00 0.00 0.00 0.00 0.00 0.00 0.00 0.00 0.00 0.00 0.00 0.00
0.00 0.00 0.00 0.00 0.00 0.00 0.00 0.00 0.00 0.00 0.00 0.00 0.00 0.00 0.00 0.00 0.00 0.00 0.00 0.00 0.00 0.00 0.00 0.00 0.00 0.00 0.00 0.00 0.00 0.00 0.00 0.00 0.00 0.00 0.00 0.00 0.00 0.00 0.00 0.00 0.00 0.00 0.00 0.00
0.00 0.00 0.00 0.00 0.00 0.00 0.01 0.00 0.00 0.00 0.01 0.00 0.00 0.00 0.00 0.00 0.00 0.00 0.00 0.00 0.00 0.00 0.00 0.00 0.00 0.00 0.00 0.00 0.00 0.00 0.00 0.00 0.00 0.00 0.00 0.00 0.00 0.00 0.00 0.00 0.00 0.00 0.00 0.00
0.01 0.00 0.00 0.00 0.00 0.00 0.00 0.00 0.00 0.01 0.01 0.00 0.00 0.00 0.00 0.00 0.00 0.00 0.00 0.00 0.00 0.00 0.00 0.00 0.00 0.00 0.00 0.00 0.00 0.00 0.00 0.00 0.00 0.00 0.00 0.00 0.00 0.00 0.00 0.00 0.00 0.00 0.00 0.00
0.00 0.00 0.00 0.00 0.00 0.00 0.00 0.00 0.00 0.00 0.00 0.01 0.00 0.00 0.00 0.00 0.00 0.00 0.00 0.00 0.00 0.00 0.00 0.00 0.00 0.00 0.00 0.00 0.00 0.00 0.00 0.00 0.00 0.00 0.00 0.00 0.00 0.00 0.00 0.00 0.00 0.00 0.00 0.00
0.00 0.00 0.00 0.00 0.00 0.00 0.00 0.00 0.00 0.00 0.00 0.00 0.00 0.00 0.00 0.00 0.00 0.00 0.00 0.00 0.00 0.00 0.00 0.00 0.00 0.00 0.00 0.00 0.00 0.00 0.00 0.00 0.00 0.00 0.00 0.00 0.00 0.00 0.00 0.00 0.00 0.00 0.00 0.00
0.00 0.00 0.00 0.00 0.00 0.00 0.00 0.00 0.00 0.00 0.00 0.00 0.00 0.00 0.00 0.00 0.00 0.00 0.00 0.00 0.00 0.00 0.00 0.00 0.00 0.00 0.00 0.00 0.00 0.00 0.00 0.00 0.00 0.00 0.00 0.00 0.00 0.00 0.00 0.00 0.00 0.00 0.00 0.00
0.00 0.00 0.00 0.00 0.00 0.00 0.00 0.00 0.00 0.00 0.00 0.00 0.00 0.00 0.00 0.00 0.00 0.00 0.00 0.00 0.00 0.00 0.00 0.00 0.00 0.00 0.00 0.00 0.00 0.00 0.00 0.00 0.00 0.00 0.00 0.00 0.00 0.00 0.00 0.00 0.00 0.00 0.00 0.00
0.00 0.00 0.00 0.00 0.00 0.00 0.00 0.00 0.00 0.00 0.00 0.00 0.00 0.00 0.00 0.00 0.00 0.00 0.00 0.00 0.00 0.00 0.00 0.00 0.00 0.00 0.00 0.00 0.00 0.00 0.00 0.00 0.00 0.00 0.00 0.00 0.00 0.00 0.00 0.00 0.00 0.00 0.00 0.00
0.00 0.00 0.00 0.00 0.00 0.00 0.00 0.00 0.00 0.00 0.00 0.00 0.00 0.00 0.00 0.00 0.00 0.00 0.00 0.00 0.00 0.00 0.00 0.00 0.00 0.00 0.00 0.00 0.00 0.00 0.00 0.00 0.00 0.00 0.00 0.00 0.00 0.00 0.00 0.00 0.00 0.00 0.00 0.00
0.00 0.00 0.00 0.00 0.00 0.00 0.00 0.00 0.00 0.00 0.00 0.00 0.00 0.00 0.00 0.00 0.00 0.00 0.00 0.00 0.00 0.00 0.00 0.00 0.00 0.00 0.00 0.00 0.00 0.00 0.00 0.00 0.00 0.00 0.00 0.00 0.00 0.00 0.00 0.00 0.00 0.00 0.00 0.00
0.00 0.00 0.00 0.00 0.00 0.00 0.00 0.00 0.00 0.00 0.00 0.00 0.00 0.00 0.00 0.00 0.00 0.00 0.00 0.00 0.00 0.00 0.00 0.00 0.00 0.00 0.00 0.00 0.00 0.00 0.00 0.00 0.00 0.00 0.00 0.00 0.00 0.00 0.00 0.00 0.00 0.00 0.00 0.00
0.00 0.00 0.00 0.00 0.00 0.00 0.00 0.00 0.00 0.00 0.00 0.00 0.00 0.00 0.00 0.00 0.00 0.00 0.00 0.00 0.00 0.00 0.00 0.00 0.00 0.00 0.00 0.00 0.00 0.00 0.00 0.00 0.00 0.00 0.00 0.00 0.00 0.00 0.00 0.00 0.00 0.00 0.00 0.00
0.00 0.00 0.00 0.00 0.00 0.00 0.00 0.00 0.00 0.00 0.00 0.00 0.00 0.00 0.00 0.00 0.00 0.00 0.00 0.00 0.00 0.00 0.00 0.00 0.00 0.00 0.00 0.00 0.00 0.00 0.00 0.00 0.00 0.00 0.00 0.00 0.00 0.00 0.00 0.00 0.00 0.00 0.00 0.00
0.00 0.00 0.00 0.00 0.00 0.00 0.00 0.00 0.00 0.00 0.00 0.00 0.00 0.00 0.00 0.00 0.00 0.00 0.00 0.00 0.00 0.00 0.00 0.00 0.00 0.00 0.00 0.00 0.00 0.00 0.00 0.00 0.00 0.00 0.00 0.00 0.00 0.00 0.00 0.00 0.00 0.00 0.00 0.00
0.00 0.00 0.00 0.00 0.00 0.00 0.00 0.00 0.00 0.00 0.00 0.00 0.00 0.00 0.00 0.00 0.00 0.00 0.00 0.00 0.00 0.00 0.00 0.00 0.00 0.00 0.00 0.00 0.00 0.00 0.00 0.00 0.00 0.00 0.00 0.00 0.00 0.00 0.00 0.00 0.00 0.00 0.00 0.00
MSLP
1009.84 1009.40 1007.10 1006.55 1006.55 1006.48 1006.96 1007.01 1006.70 1006.14 1005.79 1005.37 1004.61 1002.98 1003.68 1003.72 1003.68 1003.65 1003.69 1004.15 1004.38 1004.31 1003.89 1004.35 1004.89 1005.40 1006.08 1006.68 1007.27 1007.75 1008.71 1009.58 1010.77 1011.85 1012.96 1013.89 1014.23 1014.73 1015.27 1015.52 1015.69 1016.17 1016.93 1017.55
1010.16 1008.24 1006.50 1006.17 1006.42 1006.39 1006.31 1006.41 1006.03 1006.00 1006.00 1005.56 1004.75 1003.16 1003.72 1003.52 1003.07 1002.97 1003.08 1003.10 1003.44 1003.63 1003.73 1004.02 1004.38 1004.92 1005.48 1005.81 1006.45 1007.11 1007.81 1008.77 1009.62 1010.63 1011.59 1012.65 1013.59 1014.53 1014.86 1015.34 1015.71 1016.04 1016.49 1017.05
1009.61 1006.30 1006.60 1006.59 1006.02 1006.14 1005.69 1005.94 1005.87 1005.71 1005.90 1005.33 1005.23 1003.36 1003.68 1003.29 1002.95 1002.54 1002.29 1002.16 1002.41 1002.62 1002.96 1003.33 1003.86 1004.02 1004.53 1005.19 1005.75 1006.35 1006.80 1007.77 1008.70 1009.89 1011.16 1012.47 1013.53 1014.48 1015.11 1015.43 1015.64 1015.91 1016.24 1016.79
1008.20 1006.53 1007.03 1006.36 1005.65 1005.23 1004.51 1004.79 1005.36 1005.92 1006.28 1005.18 1005.34 1003.08 1003.06 1002.72 1002.59 1002.39 1001.49 1001.60 1001.63 1001.93 1002.20 1002.30 1002.74 1003.27 1003.46 1003.52 1003.95 1005.06 1006.04 1006.78 1007.67 1008.66 1009.87 1010.84 1011.53 1012.98 1013.65 1014.23 1015.04 1015.69 1016.15 1016.58
1006.68 1005.62 1005.28 1005.18 1004.13 1004.22 1003.44 1004.04 1004.75 1005.44 1005.81 1005.84 1005.14 1004.15 1002.00 1002.36 1002.04 1001.36 1000.81 1000.63 1000.77 1000.84 1000.92 1001.05 1001.41 1001.62 1001.91 1002.75 1003.60 1004.34 1005.45 1006.47 1007.18 1007.83 1008.55 1009.82 1010.96 1011.94 1012.96 1013.98 1014.85 1015.49 1016.05 1016.51
1005.34 1004.77 1004.18 1003.75 1003.88 1003.63 1003.55 1004.29 1004.71 1005.10 1005.19 1004.09 1004.23 1004.28 1000.60 1001.79 1001.16 1000.72 1000.40 999.86 999.80 1000.01 1000.07 1000.13 1000.15 1001.03 1001.75 1002.66 1003.53 1004.17 1004.94 1005.90 1006.71 1007.58 1008.20 1008.95 1010.11 1011.33 1012.59 1013.59 1014.60 1015.39 1016.01 1016.41
1004.40 1003.44 1002.60 1003.44 1004.26 1004.48 1004.10 1003.48 1003.94 1003.94 1003.62 1002.60 1002.69 1003.39 1001.54 1000.34 1000.15 999.61 999.63 999.72 999.44 999.36 999.49 999.52 1000.02 1000.57 1001.32 1002.08 1002.92 1003.92 1004.85 1005.83 1006.57 1007.30 1008.25 1008.99 1009.82 1010.75 1011.64 1012.63 1013.71 1014.91 1015.83 1016.37
1004.49 1002.94 1002.36 1002.21 1002.69 1003.32 1002.84 1003.10 1002.47 1002.79 1003.29 1003.26 1002.82 1001.93 1000.47 1000.04 999.99 999.84 999.72 999.49 999.33 999.27 999.22 999.41 999.53 1000.03 1000.64 1001.60 1002.48 1003.27 1004.21 1005.35 1006.08 1006.85 1007.91 1008.81 1009.68 1010.56 1011.37 1012.06 1013.02 1013.99 1014.90 1015.60
1005.15 1003.13 1001.22 1001.37 1001.04 1001.86 1002.26 1002.49 1002.15 1003.04 1003.80 1004.11 1002.90 1002.00 1000.86 1000.36 1000.22 1000.01 999.84 999.94 999.47 999.37 999.71 999.67 999.70 999.89 1000.24 1001.04 1001.75 1002.36 1003.53 1004.63 1005.47 1006.39 1007.38 1008.38 1009.32 1010.30 1011.17 1011.99 1012.68 1013.38 1014.31 1015.28
1005.74 1003.97 1001.59 1000.78 1000.91 1001.19 1001.36 1001.12 1002.64 1003.10 1002.75 1003.48 1003.39 1002.72 1001.87 1001.52 1001.27 1000.70 1000.43 1000.41 1000.44 1000.13 1000.30 1000.17 1000.12 1000.24 1000.63 1001.13 1001.77 1002.48 1003.25 1004.02 1005.10 1006.18 1007.18 1008.22 1009.13 1010.01 1010.87 1011.89 1012.67 1013.33 1014.05 1014.99
1005.66 1004.93 1002.34 1001.42 1000.92 1000.78 1001.33 1001.22 1001.83 1002.35 1003.01 1003.48 1004.07 1003.55 1002.49 1002.10 1002.00 1002.14 1001.71 1001.52 1001.96 1001.74 1001.41 1001.51 1001.47 1001.56 1001.71 1002.11 1002.42 1003.08 1003.80 1004.33 1005.41 1006.36 1007.18 1008.32 1009.42 1010.38 1011.17 1011.77 1012.58 1013.24 1014.00 1014.87
1005.40 1004.67 1003.35 1001.75 1001.13 1001.00 1000.70 1000.94 1001.59 1002.77 1003.86 1004.07 1004.23 1003.14 1002.72 1003.37 1003.28 1003.42 1003.32 1003.06 1002.86 1002.89 1002.90 1002.80 1002.97 1003.02 1003.23 1003.47 1003.62 1003.86 1004.41 1004.88 1005.83 1006.67 1007.66 1008.70 1009.63 1010.67 1011.66 1012.25 1012.72 1013.35 1014.07 1015.01
1005.73 1004.80 1003.84 1001.89 1001.69 1001.16 1001.27 1001.55 1001.63 1002.44 1003.05 1003.70 1004.64 1003.78 1003.45 1004.12 1003.91 1004.13 1004.35 1004.00 1003.76 1003.85 1003.95 1003.95 1004.21 1004.31 1004.58 1004.69 1004.78 1004.79 1005.32 1006.05 1006.60 1007.24 1008.22 1009.51 1010.26 1011.17 1011.86 1012.73 1013.27 1013.58 1014.17 1014.99
1005.73 1005.40 1004.56 1004.07 1003.29 1002.72 1002.10 1002.08 1002.29 1002.65 1003.41 1004.22 1004.46 1004.06 1004.72 1005.19 1005.65 1005.04 1004.91 1004.62 1004.59 1004.85 1005.04 1004.83 1005.15 1005.71 1005.64 1005.67 1005.82 1006.06 1006.42 1006.88 1007.56 1008.15 1008.83 1009.87 1010.74 1011.55 1012.38 1012.89 1013.41 1013.89 1014.32 1014.99
1006.62 1006.31 1005.29 1004.30 1003.86 1003.38 1003.38 1003.87 1003.84 1003.56 1003.63 1004.62 1005.14 1005.39 1006.40 1006.56 1006.09 1005.67 1005.27 1004.99 1005.28 1005.52 1005.83 1005.42 1005.74 1006.32 1006.84 1006.84 1006.66 1007.15 1007.57 1007.78 1008.32 1008.88 1009.66 1010.14 1010.78 1011.71 1012.57 1013.21 1013.52 1013.96 1014.48 1014.90
1007.35 1006.87 1005.79 1004.92 1004.38 1004.25 1004.80 1004.97 1004.70 1004.94 1005.21 1005.42 1005.76 1005.80 1006.48 1006.46 1005.59 1005.22 1005.08 1005.36 1005.58 1006.10 1006.20 1005.96 1006.33 1006.63 1006.76 1007.42 1007.70 1007.79 1008.37 1008.74 1008.88 1009.30 1010.14 1010.58 1011.09 1011.97 1012.75 1013.33 1013.69 1014.14 1014.57 1014.79
1007.73 1007.19 1006.91 1006.17 1005.64 1005.50 1006.08 1006.95 1006.68 1006.90 1006.96 1007.04 1007.28 1007.49 1006.74 1006.28 1006.44 1006.45 1006.15 1006.20 1005.99 1006.02 1006.47 1006.77 1006.74 1007.10 1007.26 1007.57 1007.83 1008.20 1008.95 1009.18 1009.66 1010.14 1010.59 1010.97 1011.41 1012.13 1012.68 1013.29 1013.78 1014.10 1014.52 1014.92
1007.60 1007.99 1007.94 1006.91 1006.08 1006.97 1007.79 1007.87 1007.83 1007.83 1008.17 1008.34 1008.41 1008.19 1007.79 1007.47 1007.30 1007.45 1007.34 1007.17 1006.73 1006.42 1006.34 1006.53 1006.80 1007.35 1007.84 1008.10 1008.44 1008.76 1009.34 1009.74 1009.95 1010.50 1011.07 1011.47 1011.58 1011.98 1012.60 1013.28 1013.79 1014.12 1014.57 1014.91
1007.07 1007.68 1007.25 1007.14 1007.23 1007.94 1008.21 1008.34 1008.44 1008.54 1008.86 1009.01 1009.10 1008.73 1008.35 1007.42 1007.18 1007.68 1007.90 1007.85 1007.50 1006.86 1006.42 1006.69 1007.09 1007.93 1008.25 1008.54 1008.89 1009.04 1009.32 1010.23 1010.46 1010.90 1011.33 1011.61 1011.92 1012.28 1012.86 1013.19 1013.60 1013.97 1014.35 1014.55
1006.53 1007.03 1007.37 1007.52 1007.84 1008.59 1008.81 1008.55 1008.61 1008.93 1009.42 1009.56 1009.70 1009.53 1009.29 1008.26 1008.22 1008.64 1008.56 1008.28 1007.76 1007.31 1007.09 1007.13 1007.62 1008.20 1008.66 1009.25 1009.54 1009.70 1010.03 1010.14 1010.41 1011.14 1011.73 1011.80 1012.11 1012.54 1012.98 1013.14 1013.55 1013.91 1014.19 1014.03
1006.97 1007.11 1007.35 1007.58 1008.30 1009.13 1009.44 1009.07 1008.84 1009.75 1010.89 1010.11 1010.28 1010.20 1010.11 1010.05 1010.15 1009.67 1009.46 1008.99 1008.66 1008.31 1008.09 1008.16 1008.22 1008.71 1009.23 1009.43 1009.53 1009.89 1010.32 1010.67 1011.18 1011.74 1011.89 1012.26 1012.63 1012.76 1013.17 1013.07 1013.57 1013.74 1013.95 1013.93
1008.23 1008.28 1008.27 1008.29 1009.05 1010.13 1009.65 1009.16 1010.30 1011.59 1010.98 1010.96 1010.70 1010.63 1010.50 1010.26 1009.91 1009.93 1009.79 1009.54 1009.23 1009.01 1008.82 1009.02 1009.20 1009.45 1009.64 1009.73 1009.89 1010.44 1011.08 1011.48 1011.75 1012.08 1012.33 1012.81 1013.05 1013.31 1013.17 1013.33 1013.69 1013.86 1013.93 1014.11
1009.42 1009.73 1009.49 1009.70 1010.40 1011.07 1011.52 1011.84 1012.22 1012.15 1012.06 1011.67 1011.45 1011.03 1010.71 1010.46 1010.16 1009.90 1009.86 1009.78 1009.66 1009.50 1009.60 1009.79 1009.98 1010.25 1010.41 1010.52 1010.63 1011.01 1011.54 1011.83 1012.18 1012.51 1012.91 1013.46 1013.60 1013.66 1013.26 1013.44 1013.75 1013.91 1013.76 1013.93
1010.43 1010.33 1010.31 1010.50 1011.46 1011.73 1012.20 1012.45 1012.72 1012.76 1012.63 1012.33 1012.04 1011.58 1011.01 1010.81 1010.46 1010.24 1010.16 1010.19 1010.22 1010.19 1010.30 1010.51 1010.65 1010.84 1010.99 1011.07 1011.21 1011.39 1011.73 1012.02 1012.40 1013.05 1013.64 1013.76 1013.44 1013.61 1013.83 1013.82 1013.92 1013.93 1013.97 1013.96
1012.14 1011.75 1011.91 1011.71 1012.07 1012.38 1012.77 1013.14 1013.38 1013.07 1012.87 1012.69 1012.41 1012.08 1011.74 1011.43 1011.15 1010.88 1010.74 1010.67 1010.73 1010.84 1010.99 1011.12 1011.30 1011.48 1011.68 1011.75 1011.88 1012.26 1012.63 1012.91 1013.32 1013.81 1014.07 1013.98 1013.89 1013.93 1013.97 1014.25 1013.86 1014.11 1014.11 1013.99
1013.28 1013.44 1013.52 1013.40 1013.77 1013.97 1013.51 1013.81 1014.01 1013.73 1013.61 1013.39 1013.06 1012.66 1012.52 1012.36 1012.10 1011.75 1011.61 1011.55 1011.55 1011.57 1011.74 1011.88 1011.97 1011.99 1012.10 1012.28 1012.31 1012.68 1013.00 1013.21 1013.21 1013.06 1013.01 1013.29 1013.59 1013.75 1013.86 1013.82 1014.12 1013.94 1013.72 1013.61
Thickness
5421 5415 5438 5467 5474 5491 5496 5487 5488 5508 5522 5526 5539 5564 5563 5570 5570 5578 5586 5586 5590 5602 5618 5619 5617 5615 5613 5612 5613 5616 5612 5610 5603 5597 5592 5588 5592 5588 5585 5586 5587 5587 5582 5578
5383 5392 5444 5466 5466 5470 5478 5475 5481 5494 5497 5498 5521 5537 5541 5547 5564 5577 5582 5590 5588 5593 5598 5604 5603 5605 5606 5609 5610 5610 5609 5604 5601 5596 5593 5588 5583 5577 5578 5577 5578 5578 5575 5571
5353 5419 5427 5429 5444 5443 5455 5453 5470 5480 5482 5489 5487 5506 5518 5527 5541 5560 5569 5582 5588 5593 5591 5592 5594 5599 5603 5602 5602 5604 5607 5601 5595 5589 5582 5576 5570 5566 5566 5567 5566 5565 5564 5563
5342 5395 5387 5393 5405 5444 5437 5468 5467 5466 5458 5455 5469 5474 5513 5530 5528 5539 5568 5577 5583 5578 5585 5594 5593 5594 5599 5608 5609 5603 5598 5597 5594 5590 5584 5580 5580 5570 5567 5564 5558 5556 5556 5555
5354 5375 5387 5384 5411 5434 5446 5466 5453 5455 5440 5440 5450 5451 5494 5508 5510 5535 5562 5576 5577 5585 5589 5597 5595 5600 5602 5600 5598 5596 5590 5585 5583 5583 5582 5577 5573 5569 5559 5553 5549 5547 5546 5543
5356 5373 5382 5401 5410 5427 5446 5436 5439 5432 5434 5433 5447 5445 5496 5476 5512 5535 5553 5572 5577 5579 5582 5585 5591 5584 5584 5580 5578 5580 5579 5577 5574 5572 5573 5573 5567 5558 5550 5545 5540 5536 5533 5533
5365 5364 5383 5392 5380 5387 5404 5429 5433 5435 5437 5447 5468 5443 5473 5497 5523 5543 5552 5554 5563 5570 5574 5576 5571 5572 5572 5569 5568 5567 5566 5562 5562 5562 5559 5558 5554 5549 5546 5540 5536 5527 5522 5521
5366 5359 5362 5392 5387 5391 5406 5418 5441 5443 5437 5439 5445 5430 5466 5503 5515 5497 5511 5527 5548 5549 5558 5564 5569 5566 5561 5557 5556 5556 5554 5550 5551 5550 5546 5542 5539 5536 5533 5531 5528 5523 5518 5514
5352 5362 5395 5389 5406 5408 5401 5401 5426 5416 5327 5370 5402 5440 5470 5478 5482 5496 5512 5512 5538 5541 5539 5544 5548 5550 5552 5549 5548 5549 5544 5542 5541 5539 5534 5531 5527 5523 5520 5516 5515 5514 5508 5503
5346 5350 5390 5395 5402 5404 5408 5425 5415 5418 5438 5438 5411 5403 5441 5446 5474 5488 5493 5497 5498 5505 5511 5521 5527 5533 5534 5537 5534 5532 5532 5531 5527 5522 5519 5515 5513 5511 5507 5503 5501 5498 5495 5491
5339 5347 5377 5394 5388 5386 5403 5410 5402 5414 5418 5416 5422 5424 5429 5467 5460 5457 5461 5469 5462 5474 5485 5491 5498 5503 5506 5509 5514 5512 5512 5513 5509 5506 5503 5499 5495 5492 5490 5488 5486 5484 5480 5477
5346 5354 5350 5389 5389 5388 5403 5404 5412 5390 5373 5376 5382 5410 5395 5393 5402 5406 5426 5440 5445 5448 5448 5459 5464 5473 5480 5486 5492 5494 5495 5497 5492 5489 5486 5481 5478 5473 5469 5469 5469 5467 5465 5460
5341 5351 5363 5395 5394 5396 5397 5389 5399 5384 5377 5382 5389 5411 5382 5379 5399 5406 5410 5419 5424 5428 5430 5433 5436 5444 5451 5458 5465 5471 5472 5471 5472 5471 5466 5461 5460 5455 5452 5448 5447 5448 5447 5444
5347 5348 5362 5367 5374 5381 5396 5400 5402 5408 5389 5369 5397 5421 5394 5393 5382 5390 5391 5402 5403 5407 5405 5412 5417 5419 5425 5432 5439 5444 5446 5449 5448 5449 5448 5443 5441 5439 5434 5431 5430 5429 5429 5427
5322 5317 5349 5365 5351 5364 5373 5364 5368 5396 5405 5419 5373 5388 5378 5379 5390 5392 5371 5391 5392 5398 5403 5408 5404 5407 5407 5411 5416 5419 5421 5425 5427 5428 5428 5427 5425 5422 5419 5415 5414 5412 5411 5410
5310 5327 5333 5347 5352 5362 5361 5352 5364 5361 5346 5336 5344 5399 5363 5360 5385 5386 5398 5391 5377 5383 5392 5394 5395 5393 5394 5395 5398 5402 5402 5403 5408 5410 5408 5408 5408 5404 5402 5400 5400 5398 5397 5396
5322 5328 5324 5332 5337 5354 5347 5339 5342 5346 5342 5343 5351 5352 5355 5356 5360 5363 5368 5378 5380 5386 5377 5372 5379 5381 5385 5386 5389 5386 5383 5387 5388 5390 5390 5392 5393 5391 5388 5385 5383 5383 5381 5379
5318 5312 5312 5323 5332 5334 5330 5323 5328 5338 5335 5333 5336 5337 5340 5339 5341 5345 5345 5349 5359 5370 5369 5370 5369 5369 5369 5367 5367 5370 5372 5376 5377 5376 5376 5377 5379 5377 5374 5370 5368 5367 5366 5365
5320 5324 5334 5342 5298 5332 5332 5324 5328 5327 5336 5324 5323 5328 5330 5340 5343 5343 5335 5336 5341 5353 5359 5359 5359 5349 5353 5354 5354 5359 5362 5359 5362 5361 5361 5362 5363 5363 5360 5359 5357 5355 5354 5354
5325 5324 5338 5313 5330 5314 5316 5326 5322 5320 5331 5315 5317 5320 5314 5337 5345 5337 5324 5328 5334 5339 5344 5344 5342 5341 5341 5337 5342 5346 5346 5349 5352 5348 5345 5348 5349 5348 5348 5349 5347 5345 5344 5347
5322 5321 5323 5323 5321 5305 5310 5316 5323 5323 5304 5312 5304 5306 5310 5316 5314 5316 5310 5317 5321 5325 5328 5329 5331 5331 5328 5329 5334 5336 5335 5337 5335 5332 5335 5335 5334 5335 5333 5336 5334 5335 5335 5337
5313 5315 5317 5325 5317 5311 5308 5323 5320 5300 5302 5299 5299 5294 5298 5293 5303 5303 5304 5307 5312 5315 5318 5317 5318 5318 5319 5321 5323 5322 5319 5318 5318 5319 5320 5318 5318 5319 5322 5323 5322 5322 5323 5322
5306 5300 5309 5311 5304 5293 5288 5286 5282 5283 5283 5288 5292 5296 5298 5301 5301 5305 5304 5305 5306 5308 5307 5306 5305 5305 5306 5307 5308 5308 5304 5304 5303 5303 5302 5299 5300 5302 5310 5310 5310 5309 5311 5311
5297 5293 5303 5306 5291 5287 5279 5276 5274 5274 5279 5282 5284 5288 5294 5296 5298 5298 5297 5298 5297 5297 5296 5294 5294 5294 5294 5295 5296 5297 5295 5293 5291 5287 5284 5285 5290 5290 5290 5292 5293 5294 5295 5297
5281 5284 5281 5297 5285 5280 5275 5271 5268 5272 5273 5274 5277 5279 5282 5284 5286 5289 5289 5288 5287 5287 5285 5284 5283 5282 5281 5281 5282 5280 5278 5278 5276 5272 5271 5273 5277 5278 5279 5278 5283 5283 5283 5284
5270 5267 5272 5279 5265 5263 5273 5265 5259 5262 5263 5265 5267 5270 5271 5271 5274 5277 5277 5276 5275 5275 5272 5271 5270 5272 5270 5268 5268 5266 5265 5265 5267 5270 5272 5271 5269 5268 5270 5271 5268 5271 5275 5276